Weather History for Erie, PA

Change the Weather History Date:

Monday, October 21, 2013

  Actual Average Record
Temperature  
Mean Temperature 58 °F 51 °F  
Max Temperature 65 °F 59 °F 82 °F (1979)
Min Temperature 51 °F 44 °F 29 °F (1895)
Degree Days  
Heating Degree Days 7 14  
Month to date heating degree days 123 227  
Since 1 July heating degree days 255 351  
Cooling Degree Days 0 0  
Month to date cooling degree days 20 7  
Year to date cooling degree days 706 636  
Growing Degree Days 7 (Base 50)    
Moisture  
Dew Point 40 °F    
Average Humidity 62    
Maximum Humidity 89    
Minimum Humidity 34    
Precipitation  
Precipitation 0.08 in 0.12 in 0.69 in (2011)
Month to date precipitation 4.58 2.84  
Year to date precipitation 42.43 33.28  
Snow  
Snow 0.00 in 0.00 in - ()
Month to date snowfall 0.0 0.0  
Since 1 July snowfall 0.0 0.0  
Since 1 September snowfall 0.0 0.0  
Snow Depth 0.00 in    
Sea Level Pressure  
Sea Level Pressure 29.89 in    
Wind  
Wind Speed 15 mph (SSW)    
Max Wind Speed 24 mph    
Max Gust Speed 33 mph    
Visibility 10 miles    
Events Rain    
T = Trace of Precipitation, MM = Missing Value Source: NWS Daily Summary

Daily Weather History Graph

Daily Weather History Graph

Search for Another Location

Airport:

Trip Planner

Search our weather history database for the weather conditions in past years. The results will help you decide how hot, cold, wet, or windy it might be!

Date:

Astronomy

Oct. 21, 2013 Rise Set
Actual Time 7:40 AM EDT 6:29 PM EDT
Civil Twilight 7:12 AM EDT 6:57 PM EDT
Nautical Twilight 6:39 AM EDT 7:30 PM EDT
Astronomical Twilight 6:07 AM EDT 8:02 PM EDT
Moon 8:18 PM EDT (10/21) 10:16 AM EDT (10/21)
Length of Visible Light 11h 45m
Length of Day
10h 48m
Waning Gibbous, 93% of the Moon is Illuminated
Oct 21
Waning Gibbous
Oct 26
Last Quarter
Nov 3
New
Nov 10
First Quarter
Nov 17
Full

Hourly Weather History & Observations

Time (EDT) Temp. Dew Point Humidity Pressure Visibility Wind Dir Wind Speed Gust Speed Precip Events Conditions
12:51 AM 51.1 °F 37.0 °F 59% 29.96 in 10.0 mi South 13.8 mph - N/A   Clear
1:51 AM 51.1 °F 37.0 °F 59% 29.96 in 10.0 mi South 15.0 mph 25.3 mph N/A   Scattered Clouds
2:51 AM 51.1 °F 36.0 °F 56% 29.97 in 10.0 mi South 18.4 mph - N/A   Clear
3:51 AM 53.1 °F 36.0 °F 52% 29.96 in 10.0 mi SW 16.1 mph 26.5 mph N/A   Scattered Clouds
4:51 AM 52.0 °F 36.0 °F 54% 29.96 in 10.0 mi SSW 15.0 mph 20.7 mph N/A   Partly Cloudy
5:51 AM 52.0 °F 35.1 °F 53% 29.96 in 10.0 mi SSW 15.0 mph 23.0 mph N/A   Clear
6:51 AM 51.1 °F 36.0 °F 56% 29.96 in 10.0 mi South 16.1 mph - N/A   Partly Cloudy
7:51 AM 51.1 °F 36.0 °F 56% 29.96 in 10.0 mi South 12.7 mph - N/A   Partly Cloudy
8:51 AM 52.0 °F 36.0 °F 54% 29.96 in 10.0 mi South 15.0 mph 25.3 mph N/A   Clear
9:51 AM 55.0 °F 37.0 °F 51% 29.96 in 10.0 mi South 15.0 mph 24.2 mph N/A   Partly Cloudy
10:51 AM 57.9 °F 37.9 °F 47% 29.94 in 10.0 mi South 17.3 mph 27.6 mph N/A   Scattered Clouds
11:51 AM 61.0 °F 37.0 °F 41% 29.93 in 10.0 mi SSW 17.3 mph 26.5 mph N/A   Clear
12:51 PM 62.1 °F 37.0 °F 39% 29.91 in 10.0 mi SSW 18.4 mph 28.8 mph N/A   Clear
1:51 PM 62.1 °F 37.0 °F 39% 29.88 in 10.0 mi South 19.6 mph 23.0 mph N/A   Clear
2:51 PM 63.0 °F 37.0 °F 38% 29.84 in 10.0 mi SSW 15.0 mph 28.8 mph N/A   Clear
3:51 PM 64.0 °F 36.0 °F 35% 29.84 in 10.0 mi SSW 18.4 mph 25.3 mph N/A   Clear
4:51 PM 63.0 °F 36.0 °F 37% 29.82 in 10.0 mi SSW 16.1 mph - N/A   Clear
5:51 PM 61.0 °F 37.0 °F 41% 29.83 in 10.0 mi SSW 9.2 mph - N/A   Clear
6:51 PM 61.0 °F 37.0 °F 41% 29.83 in 10.0 mi South 9.2 mph - N/A   Mostly Cloudy
7:51 PM 60.1 °F 37.0 °F 42% 29.82 in 10.0 mi South 10.4 mph - N/A   Overcast
8:38 PM 57.2 °F 51.8 °F 82% 29.84 in 10.0 mi West 13.8 mph 21.9 mph 0.00 in Rain Light Rain
8:49 PM 55.4 °F 51.8 °F 88% 29.84 in 10.0 mi West 13.8 mph 26.5 mph 0.00 in Rain Light Rain
8:51 PM 55.9 °F 51.1 °F 84% 29.84 in 10.0 mi West 16.1 mph 21.9 mph 0.00 in Rain Light Rain
9:28 PM 55.4 °F 50.0 °F 82% 29.84 in 10.0 mi WSW 13.8 mph 18.4 mph 0.00 in   Overcast
9:51 PM 54.0 °F 50.0 °F 86% 29.85 in 9.0 mi West 18.4 mph 26.5 mph 0.00 in Rain Light Rain
10:15 PM 53.6 °F 48.2 °F 82% 29.84 in 10.0 mi WSW 12.7 mph 21.9 mph 0.01 in Rain Light Rain
10:24 PM 53.6 °F 48.2 °F 82% 29.84 in 10.0 mi SW 11.5 mph 19.6 mph 0.02 in Rain Light Rain
10:51 PM 52.0 °F 48.0 °F 86% 29.84 in 10.0 mi SW 9.2 mph - 0.02 in Rain Light Rain
11:51 PM 52.0 °F 46.0 °F 80% 29.81 in 10.0 mi SW 12.7 mph - 0.01 in Rain Light Rain